x

Buoy B01 - Western Maine Shelf (44030) Wave Buoy

7:04 - Thu 24th Apr 2014 All times are EDT. -4 hours from GMT.

  • Sig Wave height 3.0ft
  • Peak Period 4s
  • Wind
    18mph, 22mph gusts
  • Sea Temp 42°f
  • Luft Temp 42°f
  • Sea Pressure 1000.8mb
  • Buoy B01 - Western Maine Shelf
  • Buoy B01 - Western Maine Shelf

More Historic Weather Station data

Upgrade to MSW Pro to gain access to the past 30 days of data for over 8000 Wavebouys and Weather Stations around the globe.

Join Pro

Comparision Forecast

View Surf forecast
   
Do 04/24 7:04 3ft 4s 18 22 mph 1000.8mb 42f 42f
6:04 3.5ft 4s 22 27 mph 1000.3mb 42f 42f
5:04 3.5ft 4s 25 29 mph 999.7mb 42f 43f
4:04 3.5ft 4s 25 31 mph 999.4mb 42f 43f
3:04 3ft 4s 22 27 mph 999.5mb 42f 44f
2:04 3ft 4s 20 25 mph 999.7mb 42f 45f
1:04 3.5ft 4s 20 22 mph 999.8mb 42f 45f
12:04 3ft 4s 16 18 mph 999.7mb 42f 46f
Mi 04/23 11:04 2.5ft 3s 13 16 mph 999.3mb 42f 45f
10:04 3ft 3s 18 25 mph 999mb 42f 46f
9:04 3ft 3s 22 31 mph 998.4mb 42f 47f
8:04 3.5ft 4s 20 25 mph 997.9mb 42f 47f
7:04 3.5ft 4s 22 27 mph 997.1mb 42f 47f
6:04 3.5ft 8s 18 20 mph 996.2mb 43f 47f
5:04 2.5ft 8s 13 16 mph 995.7mb 43f 46f
4:04 3.5ft 8s 13 16 mph 995.3mb 43f 47f
3:04  -   -  16 18 mph 995.3mb - 47f
2:04 2.5ft 8s 11 16 mph 995.1mb 43f 47f
1:04 2.5ft 8s 9 11 mph 995.1mb 43f 45f
12:04 2.5ft 8s 4
mph
995.6mb 43f 44f
11:04 2.5ft 8s 4
mph
995.7mb 42f 44f
10:04 2.5ft 8s 4
mph
996mb 43f 44f
9:04 2.5ft 8s 4
mph
995.7mb 42f 44f
8:04 3ft 11s 4 7 mph 995.8mb 42f 45f
7:04 2.5ft 6s 4 7 mph 995.7mb 42f 46f
6:04 3ft 8s 2 4 mph 994.9mb 43f 45f
5:04 2.5ft 6s 7 9 mph 994.4mb 43f 44f
4:04 3.5ft 8s 7 9 mph 994.9mb 43f 44f
3:04 4ft 11s 11 13 mph 995mb 43f 44f
2:04 4.5ft 11s 11
mph
995.4mb 43f 45f
1:04 5ft 8s 13 16 mph 996.1mb 43f 46f
12:04 4.5ft 8s 16
mph
996.3mb 43f 46f
Di 04/22 11:04 4.5ft 5s 16 20 mph 996.8mb 43f 47f
10:04 4.5ft 5s 16 18 mph 996.7mb 43f 47f
9:04 4.5ft 5s 7 9 mph 997.1mb 43f 45f
8:04 4.5ft 8s 18 22 mph 996.5mb 43f 47f
7:04 5ft 5s 18 22 mph 996.3mb 43f 47f
6:04 4ft 5s 20 22 mph 996.5mb 43f 47f
5:04 4.5ft 8s 18 20 mph 997.3mb 43f 47f
4:04 4ft 4s 18 20 mph 998mb 44f 47f
3:04 4.5ft 8s 18 20 mph 999mb 44f 46f
2:04 4ft 8s 13 16 mph 1000.3mb 44f 47f
1:04 3ft 8s 11 13 mph 1001.2mb 43f 45f
12:04 3.5ft 8s 11 13 mph 1002.3mb 43f 44f
11:04 2.5ft 8s 11 13 mph 1003mb 43f 44f
10:04 2.5ft 8s 9 11 mph 1003.6mb 43f 44f
9:04 2.5ft 8s 9
mph
1004.1mb 43f 44f
8:04 2.5ft 5s 9
mph
1005mb 43f 44f
7:04 2.5ft 5s 7 9 mph 1005.1mb 43f 44f
6:04 2.5ft 5s 9
mph
1005.1mb 43f 44f
5:04 3ft 5s 11
mph
1005.4mb 43f 44f
4:04 3.5ft 5s 13 16 mph 1005.9mb 42f 44f
3:04 3.5ft 5s 11 13 mph 1006.4mb 42f 44f
2:04 3.5ft 5s 13 16 mph 1006.8mb 42f 45f
1:04 3ft 5s 11 13 mph 1007.8mb 42f 45f
12:04 3ft 5s 13 16 mph 1008.2mb 42f 46f
Mo 04/21 11:04 3.5ft 5s 16 18 mph 1008.8mb 42f 46f
10:04 3ft 5s 13 16 mph 1009.2mb 42f 47f
9:04 3.5ft 5s 13 16 mph 1009.5mb 42f 46f
8:04 3ft 5s 18 20 mph 1009.7mb 42f 46f
7:04 3.5ft 5s 18 20 mph 1010.1mb 42f 46f
6:04 3.5ft 5s 20 22 mph 1010.9mb 43f 46f
5:04 3.5ft 5s 20 25 mph 1011.4mb 43f 46f
4:04 3.5ft 4s 20 25 mph 1012.3mb 43f 45f
3:04 2.5ft 4s 18 20 mph 1013.8mb 43f 44f
2:04 2.5ft 4s 16 18 mph 1015.3mb 42f 43f
1:04 3.5ft 4s 18 20 mph 1016.5mb 42f 43f
12:04 2.5ft 4s 18 22 mph 1018.1mb 42f 42f
11:04 2.5ft 4s 13 18 mph 1019.6mb 42f 42f
10:04 2.5ft 4s 16 18 mph 1020.2mb 42f 41f
9:04 2.5ft 4s 16 20 mph 1020.7mb 42f 41f
8:04 2.5ft 4s 16 18 mph 1021.8mb 41f 42f
7:04 2.5ft 4s 16
mph
1022mb 42f 42f
6:04 2ft 4s 16
mph
1022mb 42f 41f
5:04 2.5ft 8s 13 16 mph 1022.1mb 42f 41f
4:04 2.5ft 4s 11 13 mph 1022.7mb 42f 41f
3:04 3ft 4s 11 13 mph 1023.4mb 41f 41f
2:04 2.5ft 4s 13 16 mph 1024.3mb 41f 41f
1:04 3.5ft 4s 13 16 mph 1025.5mb 41f 41f
12:04 3ft 8s 13 18 mph 1026.7mb 41f 41f
So 04/20 11:04 2.5ft 3s 16 18 mph 1027.2mb 41f 41f
10:04 3ft 4s 16 18 mph 1027.7mb 41f 41f
9:04 3ft 4s 13 16 mph 1028.2mb 41f 41f
8:04 2ft 3s 18 20 mph 1028.2mb 41f 41f
7:04 2ft 3s 13 16 mph 1028.6mb 41f 41f
6:04 2.5ft 8s 13 16 mph 1029.4mb 42f 42f
5:04 2ft 6s 16
mph
1030mb 42f 41f
4:04 1.6ft 4s 13 16 mph 1030.5mb 41f 41f
3:04 2.5ft 8s 11 13 mph 1030.9mb 42f 41f
2:04 3.5ft 8s 9 11 mph 1031.6mb 41f 41f
1:04 2.5ft 8s 9
mph
1032mb 41f 41f